This demonstration page uses our WeatherBlox Daily Observations layout. Learn more.

Left ArrowRight Arrow

Hourly Observations for April 18, 2021

Temp ( °F °C ) Dew Point ( °F °C ) Humidity (%) Winds ( mph kmh ) Pressure ( in mb ) Visibility ( mi km ) Precip ( " mm )
12:53 am 00:53 Clear 58 14.4 41 5 53 53 NNW 3 6 29.88 1012 10 16 0.00 0.00
1:53 am 01:53 Clear 57 13.9 41 5 55 55 Calm 29.88 1012 10 16 0.00 0.00
2:53 am 02:53 Clear 56 13.3 41 5 57 57 S 3 6 29.88 1012 10 16 0.00 0.00
3:53 am 03:53 Mostly Cloudy 54 12.2 42 5.6 64 64 NNE 5 7 29.88 1012 10 16 0.00 0.00
4:53 am 04:53 Mostly Clear 52 11.1 42 5.6 69 69 NNW 7 11 29.89 1012 10 16 0.00 0.00
5:53 am 05:53 Clear 52 11.1 42 5.6 69 69 Calm 29.89 1012 10 16 0.00 0.00
6:53 am 06:53 Cloudy 52 11.1 42 5.6 69 69 Calm 29.90 1013 10 16 0.00 0.00
7:53 am 07:53 Mostly Sunny 50 10 44 6.7 80 80 Calm 29.93 1013 10 16 0.00 0.00
8:53 am 08:53 Sunny 55 12.8 44 6.7 67 67 NE 3 6 29.93 1013 10 16 0.00 0.00
9:53 am 09:53 Sunny 60 15.6 42 5.6 52 52 N 3 6 29.93 1014 10 16 0.00 0.00
10:53 am 10:53 Sunny 63 17.2 43 6.1 48 48 W 3 6 29.94 1014 10 16 0.00 0.00
11:53 am 11:53 Sunny 65 18.3 40 4.4 40 40 Calm 29.93 1014 10 16 0.00 0.00
12:53 pm 12:53 Sunny 67 19.4 38 3.3 35 35 W 9 15 29.90 1013 10 16 0.00 0.00
1:53 pm 13:53 Sunny 69 20.6 38 3.3 32 32 NW 9 15 29.88 1012 10 16 0.00 0.00
2:53 pm 14:53 Sunny 70 21.1 38 3.3 31 31 VRB 6 9 29.88 1012 10 16 0.00 0.00
3:53 pm 15:53 Sunny 71 21.7 40 4.4 32 32 N 7 11 29.85 1011 10 16 0.00 0.00
4:53 pm 16:53 Sunny 71 21.7 39 3.9 31 31 W 9 15 29.84 1011 10 16 0.00 0.00
5:53 pm 17:53 Sunny 71 21.7 40 4.4 32 32 WNW 9 15 29.83 1010 10 16 0.00 0.00
6:53 pm 18:53 Sunny 68 20 38 3.3 33 33 WNW 8 13 29.83 1010 10 16 0.00 0.00
7:53 pm 19:53 Sunny 67 19.4 38 3.3 35 35 WNW 7 11 29.84 1011 10 16 0.00 0.00
8:53 pm 20:53 Clear 62 16.7 40 4.4 44 44 NW 6 9 29.85 1011 10 16 0.00 0.00
9:53 pm 21:53 Clear 60 15.6 41 5 50 50 NW 3 6 29.88 1012 10 16 0.00 0.00
10:53 pm 22:53 Clear 59 15 41 5 51 51 NW 8 13 29.89 1012 10 16 0.00 0.00
11:53 pm 23:53 Clear 58 14.4 42 5.6 56 56 Calm 29.89 1012 10 16 0.00 0.00

Powered by AerisWeather